Location: Gerlach
(40.6516°N, 119.3568°W)
Time: 14:00:35
(UTC-07:00)

A-11 Canister half - Pass Details

Date: 24 February 2024
Orbit: 1525 x 1683 km, 47.3° (Epoch: 21 April)

Event Time Altitude Azimuth Distance (km) Brightness Sun altitude
Exits shadow 03:23:33 47° 155° (SSE) 1,956 9.4 -37.3°
Drops below altitude 10° 03:29:54 10° 137° (SE) 3,732 11.2 -36.2°
Sets 03:33:01 0° 134° (SE) 4,731 11.9 -35.7°
